FW6530 Weather Reports


Display with metric or nautical units.
time (UTC)temp
F
wind
direction
speed
MPH
gust
MPH
rain 1hr
in
rain 24hr
in
rain mn
in
humidity
%
barometer
mb
20260510180042 73 22 4.0 15.0 0.00 0.00 0.00 25 1024.9
20260510175524 73 80 4.0 15.0 0.00 0.00 0.00 26 1024.9
20260510175026 72 137 6.0 15.0 0.00 0.00 0.00 25 1024.9
20260510174537 71 57 2.0 15.0 0.00 0.00 0.00 26 1025.1
20260510174021 71 29 7.0 15.0 0.00 0.00 0.00 25 1025.2
20260510173522 72 102 5.0 14.0 0.00 0.00 0.00 26 1025.1
20260510173036 72 78 4.0 14.0 0.00 0.00 0.00 26 1025.1
20260510172524 71 69 5.0 13.0 0.00 0.00 0.00 27 1025.2
20260510172024 72 132 3.0 17.0 0.00 0.00 0.00 27 1025.2
20260510171536 71 87 6.0 17.0 0.00 0.00 0.00 27 1025.2
20260510171022 70 0 1.0 14.0 0.00 0.00 0.00 28 1025.2
20260510170526 70 76 7.0 16.0 0.00 0.00 0.00 27 1025.3
20260510170043 70 179 7.0 16.0 0.00 0.00 0.00 28 1025.2
20260510165524 71 51 6.0 17.0 0.00 0.00 0.00 28 1025.1
20260510165024 70 108 8.0 17.0 0.00 0.00 0.00 28 1025.0
20260510164548 70 88 5.0 14.0 0.00 0.00 0.00 27 1025.1
20260510164024 70 64 4.0 13.0 0.00 0.00 0.00 27 1024.9
20260510163521 70 73 5.0 16.0 0.00 0.00 0.00 29 1024.9
20260510163038 70 59 3.0 16.0 0.00 0.00 0.00 27 1024.9
20260510162524 70 55 6.0 19.0 0.00 0.00 0.00 28 1024.9
20260510162021 70 65 8.0 19.0 0.00 0.00 0.00 29 1024.9
20260510161538 69 61 4.0 16.0 0.00 0.00 0.00 31 1024.8
20260510161023 69 31 8.0 16.0 0.00 0.00 0.00 29 1024.8
20260510160521 69 17 5.0 17.0 0.00 0.00 0.00 30 1024.7
20260510160037 68 9 8.0 17.0 0.00 0.00 0.00 29 1024.7
20260510155523 68 108 3.0 11.0 0.00 0.00 0.00 29 1024.6
20260510155023 68 67 4.0 11.0 0.00 0.00 0.00 29 1024.6
20260510154546 67 44 3.0 13.0 0.00 0.00 0.00 29 1024.6
20260510154028 67 10 3.0 13.0 0.00 0.00 0.00 30 1024.6
20260510153522 66 349 5.0 14.0 0.00 0.00 0.00 30 1024.6
20260510153034 66 50 5.0 14.0 0.00 0.00 0.00 31 1024.5
20260510152527 66 26 5.0 13.0 0.00 0.00 0.00 31 1024.4
20260510152025 66 66 5.0 13.0 0.00 0.00 0.00 31 1024.5
20260510151542 65 5 3.0 12.0 0.00 0.00 0.00 31 1024.3
20260510151025 65 5 6.0 13.0 0.00 0.00 0.00 31 1024.3
20260510150528 65 341 7.0 13.0 0.00 0.00 0.00 32 1024.3
20260510150043 64 61 7.0 14.0 0.00 0.00 0.00 32 1024.3
20260510145526 64 34 7.0 15.0 0.00 0.00 0.00 32 1024.2
20260510145026 63 22 9.0 18.0 0.00 0.00 0.00 32 1024.3
20260510144550 64 10 8.0 18.0 0.00 0.00 0.00 32 1024.3
20260510144027 64 360 6.0 18.0 0.00 0.00 0.00 32 1024.2
20260510143524 64 5 8.0 16.0 0.00 0.00 0.00 31 1024.3
20260510143051 64 338 4.0 13.0 0.00 0.00 0.00 32 1024.1
20260510142525 63 50 6.0 13.0 0.00 0.00 0.00 33 1024.1
20260510142026 63 65 5.0 11.0 0.00 0.00 0.00 33 1024.1
20260510141535 62 11 7.0 11.0 0.00 0.00 0.00 33 1024.0
20260510141025 62 46 5.0 11.0 0.00 0.00 0.00 34 1023.9
20260510140525 61 350 5.0 10.0 0.00 0.00 0.00 35 1023.8
20260510140045 60 5 4.0 10.0 0.00 0.00 0.00 35 1023.8
20260510135524 60 12 4.0 11.0 0.00 0.00 0.00 36 1023.7
20260510135025 59 23 5.0 11.0 0.00 0.00 0.00 37 1023.7
20260510134539 59 31 4.0 9.0 0.00 0.00 0.00 37 1023.7
20260510134024 58 11 3.0 12.0 0.00 0.00 0.00 37 1023.7
20260510133523 58 328 5.0 12.0 0.00 0.00 0.00 37 1023.7
20260510133038 57 333 3.0 9.0 0.00 0.00 0.00 38 1023.6
20260510132524 57 350 4.0 9.0 0.00 0.00 0.00 38 1023.6
20260510132026 57 5 4.0 12.0 0.00 0.00 0.00 38 1023.4
20260510131545 57 9 3.0 12.0 0.00 0.00 0.00 38 1023.2
20260510131029 57 352 4.0 12.0 0.00 0.00 0.00 38 1023.2
20260510130525 57 13 3.0 9.0 0.00 0.00 0.00 38 1023.1
20260510130038 57 28 2.0 9.0 0.00 0.00 0.00 38 1023.1
20260510125527 57 5 3.0 10.0 0.00 0.00 0.00 38 1022.9
20260510125026 57 352 3.0 10.0 0.00 0.00 0.00 37 1022.8
20260510124539 57 5 5.0 10.0 0.00 0.00 0.00 37 1022.8
20260510124025 57 349 3.0 13.0 0.00 0.00 0.00 37 1022.7
20260510123526 57 319 5.0 13.0 0.00 0.00 0.00 37 1022.7
20260510123046 57 333 4.0 12.0 0.00 0.00 0.00 37 1022.7
20260510122525 57 333 5.0 12.0 0.00 0.00 0.00 37 1022.8
20260510122025 58 314 5.0 10.0 0.00 0.00 0.00 36 1022.7
20260510121540 58 345 4.0 14.0 0.00 0.00 0.00 36 1022.5
20260510121028 58 13 4.0 14.0 0.00 0.00 0.00 35 1022.6
20260510120525 58 350 5.0 13.0 0.00 0.00 0.00 35 1022.5
20260510120042 59 360 4.0 13.0 0.00 0.00 0.00 35 1022.3
20260510115527 59 352 3.0 11.0 0.00 0.00 0.00 34 1022.4
20260510115023 59 348 4.0 10.0 0.00 0.00 0.00 33 1022.5
20260510114543 59 343 3.0 10.0 0.00 0.00 0.00 32 1022.5
20260510114029 60 5 4.0 9.0 0.00 0.00 0.00 32 1022.4
20260510113525 60 9 2.0 11.0 0.00 0.00 0.00 31 1022.3
20260510113036 60 360 4.0 14.0 0.00 0.00 0.00 31 1022.2
20260510112529 60 328 7.0 14.0 0.00 0.00 0.00 31 1022.0
20260510112025 60 352 3.0 16.0 0.00 0.00 0.00 30 1022.0
20260510111534 60 41 7.0 18.0 0.00 0.00 0.00 30 1022.0
20260510111024 61 347 9.0 18.0 0.00 0.00 0.00 30 1022.1
20260510110524 61 56 4.0 10.0 0.00 0.00 0.00 28 1022.0
20260510110035 61 9 3.0 10.0 0.00 0.00 0.00 27 1022.0
20260510105525 62 9 5.0 10.0 0.00 0.00 0.00 27 1021.9
20260510105025 61 348 3.0 11.0 0.00 0.00 0.00 27 1021.9
20260510104540 61 309 4.0 16.0 0.00 0.00 0.00 28 1021.9
20260510104025 60 296 5.0 16.0 0.00 0.00 0.00 29 1021.9
20260510103524 59 316 6.0 12.0 0.00 0.00 0.00 29 1022.2
20260510103039 59 53 3.0 12.0 0.00 0.00 0.00 28 1022.4
20260510102528 59 360 6.0 12.0 0.00 0.00 0.00 28 1022.0
20260510102028 57 24 6.0 12.0 0.00 0.00 0.00 31 1022.0
20260510101538 56 346 2.0 5.0 0.00 0.00 0.00 33 1021.9
20260510101025 55 280 0.0 2.0 0.00 0.00 0.00 34 1021.8
20260510100525 55 0 1.0 2.0 0.00 0.00 0.00 34 1021.7
20260510100036 56 278 0.0 2.0 0.00 0.00 0.00 35 1021.7
20260510095525 56 0 0.0 3.0 0.00 0.00 0.00 35 1021.6
20260510095026 56 0 1.0 3.0 0.00 0.00 0.00 34 1021.6
20260510094537 56 278 0.0 3.0 0.00 0.00 0.00 34 1021.5
20260510094025 56 0 1.0 3.0 0.00 0.00 0.00 34 1021.4
20260510093526 56 278 0.0 2.0 0.00 0.00 0.00 34 1021.3
20260510093045 56 278 0.0 2.0 0.00 0.00 0.00 33 1021.3
20260510092526 57 0 0.0 0.0 0.00 0.00 0.00 32 1021.3
20260510092025 57 0 0.0 0.0 0.00 0.00 0.00 32 1021.1
20260510091543 57 0 0.0 2.0 0.00 0.00 0.00 32 1021.0
20260510091025 57 0 0.0 3.0 0.00 0.00 0.00 32 1020.9
20260510090526 57 0 1.0 3.0 0.00 0.00 0.00 32 1020.7
20260510090040 57 277 1.0 3.0 0.00 0.00 0.00 32 1020.6
20260510085524 57 0 0.0 1.0 0.00 0.00 0.00 32 1020.5
20260510085024 57 0 0.0 1.0 0.00 0.00 0.00 31 1020.5
20260510084541 57 0 0.0 3.0 0.00 0.00 0.00 31 1020.5
20260510084025 57 0 1.0 3.0 0.00 0.00 0.00 31 1020.5
20260510083525 57 277 1.0 4.0 0.00 0.00 0.00 31 1020.4
20260510083036 57 277 1.0 4.0 0.00 0.00 0.00 30 1020.4
20260510082525 57 276 1.0 4.0 0.00 0.00 0.00 30 1020.4
20260510082025 57 271 0.0 3.0 0.00 0.00 0.00 30 1020.4
20260510081535 57 0 1.0 3.0 0.00 0.00 0.00 30 1020.4
20260510081025 58 269 1.0 3.0 0.00 0.00 0.00 30 1020.3
20260510080524 58 269 1.0 6.0 0.00 0.00 0.00 30 1020.3
20260510080036 57 269 1.0 6.0 0.00 0.00 0.00 30 1020.3
20260510075524 57 269 2.0 6.0 0.00 0.00 0.00 30 1020.4
20260510075024 57 273 1.0 7.0 0.00 0.00 0.00 31 1020.4
20260510074547 56 271 1.0 7.0 0.00 0.00 0.00 31 1020.4
20260510074025 56 278 2.0 6.0 0.00 0.00 0.00 32 1020.4
20260510073528 56 291 1.0 4.0 0.00 0.00 0.00 32 1020.3
20260510073058 56 292 1.0 2.0 0.00 0.00 0.00 31 1020.4
20260510072524 57 0 0.0 2.0 0.00 0.00 0.00 30 1020.4
20260510072025 58 0 0.0 2.0 0.00 0.00 0.00 30 1020.4
20260510071538 58 0 0.0 3.0 0.00 0.00 0.00 29 1020.5
20260510071024 59 292 0.0 5.0 0.00 0.00 0.00 29 1020.4
20260510070524 59 0 1.0 5.0 0.00 0.00 0.00 28 1020.4
20260510070037 59 290 3.0 5.0 0.00 0.00 0.00 28 1020.3
20260510065524 59 299 2.0 7.0 0.00 0.00 0.00 28 1020.4
20260510065025 59 299 2.0 7.0 0.00 0.00 0.00 28 1020.4
20260510064548 59 298 3.0 7.0 0.00 0.00 0.00 28 1020.3
20260510064024 59 296 2.0 4.0 0.00 0.00 0.00 28 1020.3
20260510063525 59 0 1.0 3.0 0.00 0.00 0.00 27 1020.4
20260510063035 59 293 1.0 4.0 0.00 0.00 0.00 27 1020.3
20260510062525 59 292 2.0 4.0 0.00 0.00 0.00 27 1020.2
20260510062024 60 292 1.0 3.0 0.00 0.00 0.00 27 1020.2
20260510061542 60 292 0.0 4.0 0.00 0.00 0.00 26 1020.2
20260510061025 60 292 2.0 4.0 0.00 0.00 0.00 26 1020.2
20260510060526 61 292 2.0 4.0 0.00 0.00 0.00 25 1020.0
20260510060038 61 290 1.0 4.0 0.00 0.00 0.00 24 1020.0
20260510055525 61 290 1.0 5.0 0.00 0.00 0.00 24 1020.1
20260510055025 61 291 2.0 5.0 0.00 0.00 0.00 24 1020.0
20260510054543 62 287 2.0 4.0 0.00 0.00 0.00 24 1020.0
20260510054023 62 278 1.0 4.0 0.00 0.00 0.00 24 1020.0
20260510053527 63 277 0.0 4.0 0.00 0.00 0.00 23 1020.0
20260510053043 63 277 1.0 6.0 0.00 0.00 0.00 23 1020.0
20260510052525 63 279 2.0 8.0 0.00 0.00 0.00 23 1019.9
20260510052025 64 275 2.0 8.0 0.00 0.00 0.00 22 1020.0
20260510051547 64 239 1.0 4.0 0.00 0.00 0.00 22 1019.9
20260510051029 64 282 1.0 6.0 0.00 0.00 0.00 22 1019.8
20260510050523 64 282 1.0 7.0 0.00 0.00 0.00 22 1019.8
20260510050036 64 285 2.0 7.0 0.00 0.00 0.00 21 1019.7
20260510045526 64 292 3.0 7.0 0.00 0.00 0.00 21 1019.7
20260510045028 64 277 1.0 6.0 0.00 0.00 0.00 21 1019.6
20260510044540 64 269 2.0 7.0 0.00 0.00 0.00 21 1019.7
20260510044024 64 282 2.0 7.0 0.00 0.00 0.00 21 1019.8
20260510043523 63 283 3.0 7.0 0.00 0.00 0.00 21 1019.8
20260510043041 63 291 1.0 3.0 0.00 0.00 0.00 22 1019.7
20260510042527 63 292 1.0 3.0 0.00 0.00 0.00 21 1019.7
20260510042026 63 292 1.0 3.0 0.00 0.00 0.00 20 1019.7
20260510041541 64 0 0.0 4.0 0.00 0.00 0.00 19 1019.6
20260510041025 64 0 0.0 4.0 0.00 0.00 0.00 19 1019.6
20260510040524 64 292 1.0 4.0 0.00 0.00 0.00 18 1019.5
20260510040045 65 0 1.0 4.0 0.00 0.00 0.00 18 1019.5
20260510035525 65 288 0.0 4.0 0.00 0.00 0.00 18 1019.4
20260510035025 66 290 2.0 7.0 0.00 0.00 0.00 17 1019.3
20260510034544 66 285 2.0 7.0 0.00 0.00 0.00 17 1019.4
20260510034023 66 229 2.0 7.0 0.00 0.00 0.00 16 1019.4
20260510033527 67 237 2.0 7.0 0.00 0.00 0.00 16 1019.3
20260510033035 67 243 3.0 7.0 0.00 0.00 0.00 16 1019.2
20260510032522 67 248 1.0 5.0 0.00 0.00 0.00 16 1019.0
20260510032024 67 242 2.0 5.0 0.00 0.00 0.00 16 1018.9
20260510031539 68 219 1.0 5.0 0.00 0.00 0.00 16 1018.9
20260510031025 68 0 0.0 2.0 0.00 0.00 0.00 16 1018.8
20260510030522 69 0 0.0 2.0 0.00 0.00 0.00 16 1018.7
20260510030038 69 0 0.0 6.0 0.00 0.00 0.00 15 1018.6
20260510025524 70 0 0.0 6.0 0.00 0.00 0.00 15 1018.5
20260510025025 70 206 2.0 8.0 0.00 0.00 0.00 15 1018.4
20260510024539 70 200 2.0 9.0 0.00 0.00 0.00 15 1018.4
20260510024024 70 198 3.0 10.0 0.00 0.00 0.00 14 1018.3
20260510023524 71 190 4.0 10.0 0.00 0.00 0.00 14 1018.2
20260510023037 71 193 5.0 11.0 0.00 0.00 0.00 14 1018.2
20260510022523 71 196 5.0 11.0 0.00 0.00 0.00 14 1018.2
20260510022024 71 191 4.0 10.0 0.00 0.00 0.00 14 1018.1
20260510021536 71 167 4.0 10.0 0.00 0.00 0.00 13 1018.1
20260510021023 72 159 4.0 12.0 0.00 0.00 0.00 13 1018.1
20260510020525 72 197 5.0 14.0 0.00 0.00 0.00 13 1018.0
20260510020035 72 186 7.0 14.0 0.00 0.00 0.00 13 1017.9
20260510015527 73 202 4.0 19.0 0.00 0.00 0.00 13 1017.9
20260510015025 73 108 8.0 19.0 0.00 0.00 0.00 13 1017.9
20260510014543 73 152 10.0 25.0 0.00 0.00 0.00 12 1017.8
20260510014024 74 144 11.0 25.0 0.00 0.00 0.00 12 1017.7
20260510013528 75 165 6.0 18.0 0.00 0.00 0.00 12 1017.7
20260510013039 75 138 6.0 25.0 0.00 0.00 0.00 12 1017.7
20260510012524 75 165 10.0 25.0 0.00 0.00 0.00 12 1017.6
20260510012028 75 164 8.0 18.0 0.00 0.00 0.00 12 1017.5
20260510011539 75 155 7.0 18.0 0.00 0.00 0.00 12 1017.5
20260510011022 75 177 8.0 16.0 0.00 0.00 0.00 11 1017.4
20260510010524 75 171 4.0 18.0 0.00 0.00 0.00 12 1017.4
20260510010044 75 149 6.0 20.0 0.00 0.00 0.00 11 1017.4
20260510005524 75 167 8.0 20.0 0.00 0.00 0.00 11 1017.4
20260510005024 75 192 8.0 20.0 0.00 0.00 0.00 12 1017.4
20260510004536 75 184 9.0 20.0 0.00 0.00 0.00 11 1017.3
20260510004025 76 184 10.0 21.0 0.00 0.00 0.00 11 1017.4
20260510003524 76 157 9.0 21.0 0.00 0.00 0.00 11 1017.3
20260510003055 76 128 8.0 17.0 0.00 0.00 0.00 11 1017.2
20260510002524 76 169 8.0 18.0 0.00 0.00 0.00 11 1017.3
20260510002022 76 169 8.0 18.0 0.00 0.00 0.00 12 1017.2
20260510001542 76 172 7.0 16.0 0.00 0.00 0.00 12 1017.3
20260510001025 76 173 8.0 16.0 0.00 0.00 0.00 11 1017.2
20260510000525 76 165 9.0 18.0 0.00 0.00 0.00 11 1017.2
20260510000046 76 159 8.0 20.0 0.00 0.00 0.00 11 1017.1
20260509235524 76 170 11.0 20.0 0.00 0.00 0.00 11 1017.2
20260509235024 77 188 9.0 27.0 0.00 0.00 0.00 11 1017.2
20260509234539 77 180 12.0 27.0 0.00 0.00 0.00 10 1017.2
20260509234025 78 180 8.0 21.0 0.00 0.00 0.00 11 1017.1
20260509233523 77 181 9.0 21.0 0.00 0.00 0.00 11 1017.1
20260509233035 77 131 8.0 17.0 0.00 0.00 0.00 12 1017.0
20260509232522 77 187 7.0 21.0 0.00 0.00 0.00 11 1017.2
20260509232024 77 172 7.0 21.0 0.00 0.00 0.00 11 1017.2
20260509231536 78 190 5.0 15.0 0.00 0.00 0.00 11 1017.1
20260509231023 77 187 3.0 19.0 0.00 0.00 0.00 11 1017.1
20260509230524 77 180 9.0 26.0 0.00 0.00 0.00 11 1017.2
20260509230035 77 136 12.0 26.0 0.00 0.00 0.00 11 1017.2
20260509225524 79 144 14.0 24.0 0.00 0.00 0.00 11 1017.1
20260509225023 80 129 9.0 20.0 0.00 0.00 0.00 10 1017.1
20260509224535 80 131 11.0 20.0 0.00 0.00 0.00 10 1017.0
20260509224024 79 115 8.0 22.0 0.00 0.00 0.00 11 1017.0
20260509223524 79 176 11.0 22.0 0.00 0.00 0.00 10 1017.1
20260509223034 78 119 6.0 20.0 0.00 0.00 0.00 11 1017.1
20260509222524 77 159 7.0 20.0 0.00 0.00 0.00 12 1017.2
20260509222023 76 184 5.0 19.0 0.00 0.00 0.00 12 1017.1
20260509221538 77 165 8.0 19.0 0.00 0.00 0.00 11 1017.3
20260509221025 77 173 9.0 19.0 0.00 0.00 0.00 12 1017.3
20260509220522 78 173 5.0 19.0 0.00 0.00 0.00 12 1017.3
20260509220045 77 141 8.0 19.0 0.00 0.00 0.00 12 1017.4
20260509215523 76 173 6.0 15.0 0.00 0.00 0.00 13 1017.5
20260509215024 76 183 5.0 14.0 0.00 0.00 0.00 13 1017.5
20260509214543 77 198 6.0 15.0 0.00 0.00 0.00 12 1017.5
20260509214025 77 186 4.0 15.0 0.00 0.00 0.00 12 1017.6
20260509213523 78 178 8.0 19.0 0.00 0.00 0.00 12 1017.6
20260509213035 78 181 6.0 19.0 0.00 0.00 0.00 12 1017.6
20260509212522 78 198 8.0 19.0 0.00 0.00 0.00 12 1017.7
20260509212022 77 247 10.0 19.0 0.00 0.00 0.00 12 1017.8
20260509211535 77 167 7.0 16.0 0.00 0.00 0.00 12 1017.8
20260509211026 77 167 5.0 16.0 0.00 0.00 0.00 12 1017.9
20260509210526 77 171 7.0 21.0 0.00 0.00 0.00 13 1018.1
20260509210045 77 187 9.0 21.0 0.00 0.00 0.00 13 1018.2
20260509205528 77 185 7.0 21.0 0.00 0.00 0.00 12 1018.2
20260509205027 77 192 9.0 21.0 0.00 0.00 0.00 12 1018.5
20260509204539 78 160 11.0 20.0 0.00 0.00 0.00 12 1018.4
20260509204025 78 196 8.0 20.0 0.00 0.00 0.00 11 1018.4
20260509203528 79 160 5.0 16.0 0.00 0.00 0.00 11 1018.3
20260509203039 78 182 6.0 20.0 0.00 0.00 0.00 12 1018.5
20260509202525 77 171 8.0 21.0 0.00 0.00 0.00 12 1018.6
20260509202025 78 175 10.0 21.0 0.00 0.00 0.00 12 1018.6
20260509201534 79 147 7.0 16.0 0.00 0.00 0.00 12 1018.7
20260509201024 78 73 7.0 13.0 0.00 0.00 0.00 13 1018.7
20260509200525 77 117 5.0 16.0 0.00 0.00 0.00 13 1018.9
20260509200046 77 115 8.0 18.0 0.00 0.00 0.00 13 1019.0
20260509195526 77 175 7.0 20.0 0.00 0.00 0.00 13 1019.1
20260509195026 78 187 8.0 20.0 0.00 0.00 0.00 13 1019.2
20260509194548 78 234 2.0 10.0 0.00 0.00 0.00 13 1019.2
20260509194026 78 231 4.0 10.0 0.00 0.00 0.00 13 1019.4
20260509193527 79 223 3.0 8.0 0.00 0.00 0.00 14 1019.3
20260509193041 79 274 2.0 9.0 0.00 0.00 0.00 13 1019.3
20260509192525 80 232 1.0 9.0 0.00 0.00 0.00 13 1019.3
20260509192025 80 269 3.0 14.0 0.00 0.00 0.00 13 1019.3
20260509191540 80 127 6.0 14.0 0.00 0.00 0.00 13 1019.4
20260509191029 79 92 4.0 10.0 0.00 0.00 0.00 14 1019.4
20260509190523 79 195 4.0 12.0 0.00 0.00 0.00 14 1019.6
20260509190042 78 219 5.0 12.0 0.00 0.00 0.00 14 1019.6
20260509185526 78 159 3.0 12.0 0.00 0.00 0.00 15 1019.7
20260509185025 77 180 2.0 16.0 0.00 0.00 0.00 15 1019.8
20260509184538 76 77 6.0 16.0 0.00 0.00 0.00 15 1019.9
20260509184026 77 157 6.0 15.0 0.00 0.00 0.00 15 1019.9
20260509183524 78 244 4.0 15.0 0.00 0.00 0.00 15 1020.0
20260509183057 77 127 5.0 10.0 0.00 0.00 0.00 15 1020.0
20260509182526 76 136 4.0 12.0 0.00 0.00 0.00 15 1020.1
20260509182027 76 148 6.0 15.0 0.00 0.00 0.00 16 1020.2
20260509181540 76 101 8.0 15.0 0.00 0.00 0.00 16 1020.3
20260509181023 76 127 4.0 10.0 0.00 0.00 0.00 16 1020.3
20260509180539 75 169 2.0 10.0 0.00 0.00 0.00 16 1020.4